CZ-4 DEB, 26142

Orbit data source: Space-Track

CZ-4 DEB, 26142 is space debris in SSO originally from a launch on Thu, 14 Oct 1999 UTC launched from the Taiyaun Space Center, China (TSC). Debris objects in space refer to the collection of defunct objects orbiting the Earth. Examples of debris include non-operational satellites, rocket bodies, and fragments generated from explosions, collisions, or faulty payload assembly.

Loading next visibility...
Identifier
26142, 1999-057AE
Orbit
SSO
Last TLE update
7 hours ago
Origin
Manufacturer
Unknown
Mission
Spacecraft
Bus & Motor
Unknown
Mass
Unknown
Launch date (UTC)
1999-10-14 (26 years ago)
Launch vehicle
Unknown
Launch site
Taiyaun Space Center, China (TSC)
Object type
Payload
Rocket body
Debris
Shape & HBR
Unknown
Radar Cross Section
Small (<0.1 m²)

Expand to show TLE details & history

TLE from 7 hours ago
0 CZ-4 DEB
1 26142U 99057AE  25199.66834060  .00000481  00000-0  31291-3 0  9996
2 26142  98.7657  96.8977 0297784 329.7611  59.5223 13.87394880278207
Epoch: 2025-07-18T16:02Z
TLE epoch observation values (Epoch: 2025-07-18T16:02:24.627Z)
Latitude
31.91722°
Longitude
-85.9034°
Altitude
836.229 km
Speed
7.491 km/s
True Right ascension
06h 05m 39s
True Declination
31° 45' 53"
Sunlit
Object was in daylight at epoch
Visualization orbit readout
Latitude
50.1417°
Longitude
110.45677°
Altitude
1,149.984 km
Speed
7.18 km/s
Apparent Right ascension
21h 43m 41s
Apparent Declination
12° 21' 58"
Sunlit
Object is in daylight
Visualization observer readout
Local Sidereal Time
12:13:52
Azimuth
41.995° NE
Elevation
-27.167°
Doppler factor
1
Orbital elements
Apogee altitude
1,152.749 km
Perigee altitude
717.203 km
Semi-major axis
7,313.113 km
Eccentricity
0.02978
Inclination
98.7657°
RAAN
96.8977°
Arg. of periapsis
329.7611°
True anomaly
62.51833°
Mean anomaly
59.5223°
Eccentric anomaly
61.01477°
Mean motion
3.47048 °/min
Orbital period
103.73 mins
BSTAR
0.00031291
Loading maneuver chart data...
Loading SW <> Apogee altitude chart data...
Loading historical data...
Loading historical data...
Loading historical data...
Loading historical data...
Loading historical data...
Loading historical data...
Loading historical data...
|